When you browse on this site, cookies collect data to enhance your experience and personalize the content and advertising you see.
Visit our Privacy Policy to learn more. By continuing to use the site, you agree to this use of cookies and data.
  • In Hungary
  • List of Countries
  • For 7 days
  • Water Temperature
  • Weather Map
  • News
  • Weather Widgets
  • user-avatar
    Login

    Hourly Weather Michuriha

    Today, 20 January, Monday

    Time Temperature Precipitation Wind Pressure Humidity
    00:00 0°C° 0 mm 5 mps 751 mmHg 92%
    01:00 0°C° 0 mm 5 mps 751 mmHg 90%
    02:00 -1°C° 0 mm 6 mps 752 mmHg 85%
    03:00 -1°C° 0 mm 6 mps 751 mmHg 88%
    04:00 -2°C° 0 mm 6 mps 751 mmHg 91%
    05:00 -2°C° 0 mm 6 mps 751 mmHg 95%
    06:00 -1°C° 0.2 mm 5 mps 751 mmHg 95%
    07:00 -1°C° 0.2 mm 5 mps 752 mmHg 96%
    08:00 -1°C° 0.2 mm 5 mps 752 mmHg 97%
    09:00 -1°C° 0.2 mm 5 mps 752 mmHg 96%
    10:00 -1°C° 0.2 mm 5 mps 752 mmHg 96%
    11:00 -1°C° 0.2 mm 5 mps 751 mmHg 96%
    12:00 -1°C° 0.2 mm 5 mps 751 mmHg 96%
    13:00 -1°C° 0.2 mm 5 mps 751 mmHg 95%
    14:00 -1°C° 0.2 mm 5 mps 751 mmHg 95%
    15:00 -1°C° 0 mm 5 mps 751 mmHg 95%
    16:00 -1°C° 0 mm 5 mps 751 mmHg 94%
    17:00 -1°C° 0 mm 5 mps 750 mmHg 94%
    18:00 -1°C° 0 mm 5 mps 750 mmHg 94%
    19:00 -1°C° 0 mm 5 mps 750 mmHg 93%
    20:00 -1°C° 0 mm 5 mps 749 mmHg 93%
    21:00 -1°C° 0 mm 5 mps 749 mmHg 91%
    22:00 -2°C° 0 mm 5 mps 748 mmHg 89%
    23:00 -2°C° 0 mm 5 mps 747 mmHg 86%

    Tomorrow, 21 January, Tuesday

    Time Temperature Precipitation Wind Pressure Humidity
    00:00 -2°C° 0.1 mm 5 mps 747 mmHg 88%
    01:00 -2°C° 0.1 mm 5 mps 746 mmHg 89%
    02:00 -2°C° 0.1 mm 5 mps 745 mmHg 91%
    03:00 -2°C° 0.7 mm 6 mps 744 mmHg 92%
    04:00 -1°C° 0.7 mm 6 mps 743 mmHg 94%
    05:00 -1°C° 0.7 mm 6 mps 742 mmHg 95%
    06:00 0°C° 0.5 mm 7 mps 741 mmHg 93%
    07:00 0°C° 0.5 mm 7 mps 740 mmHg 90%
    08:00 +1°C° 0.5 mm 8 mps 739 mmHg 88%
    09:00 +2°C° 0 mm 7 mps 739 mmHg 88%
    10:00 +2°C° 0 mm 7 mps 738 mmHg 89%
    11:00 +2°C° 0 mm 6 mps 738 mmHg 89%
    12:00 +2°C° 0.1 mm 6 mps 737 mmHg 89%
    13:00 +3°C° 0.1 mm 6 mps 737 mmHg 88%
    14:00 +3°C° 0.1 mm 6 mps 737 mmHg 88%
    15:00 +2°C° 0.6 mm 5 mps 736 mmHg 90%
    16:00 +2°C° 0.6 mm 5 mps 735 mmHg 93%
    17:00 +2°C° 0.6 mm 5 mps 734 mmHg 95%
    18:00 +2°C° 0.4 mm 5 mps 734 mmHg 93%
    19:00 +1°C° 0.4 mm 6 mps 733 mmHg 90%
    20:00 +1°C° 0.4 mm 6 mps 733 mmHg 88%
    21:00 -1°C° 0.1 mm 7 mps 733 mmHg 83%
    22:00 -2°C° 0.1 mm 7 mps 734 mmHg 78%
    23:00 -3°C° 0.1 mm 7 mps 734 mmHg 74%

    Day after tomorrow, 22 January, Wednesday

    Time Temperature Precipitation Wind Pressure Humidity
    00:00 -3°C° 0 mm 7 mps 734 mmHg 74%
    01:00 -4°C° 0 mm 6 mps 734 mmHg 75%
    02:00 -4°C° 0 mm 6 mps 734 mmHg 76%
    03:00 -4°C° 0 mm 6 mps 733 mmHg 76%
    04:00 -4°C° 0 mm 6 mps 733 mmHg 77%
    05:00 -4°C° 0 mm 6 mps 732 mmHg 77%
    06:00 -4°C° 0.2 mm 6 mps 731 mmHg 80%
    07:00 -4°C° 0.2 mm 6 mps 731 mmHg 84%
    08:00 -4°C° 0.2 mm 6 mps 730 mmHg 87%
    09:00 -4°C° 0.4 mm 6 mps 730 mmHg 81%
    10:00 -4°C° 0.4 mm 6 mps 730 mmHg 75%
    11:00 -3°C° 0.4 mm 6 mps 730 mmHg 70%
    12:00 -4°C° 0 mm 7 mps 730 mmHg 70%
    13:00 -4°C° 0 mm 7 mps 730 mmHg 71%
    14:00 -4°C° 0 mm 7 mps 730 mmHg 72%
    15:00 -4°C° 0 mm 7 mps 730 mmHg 75%
    16:00 -6°C° 0 mm 7 mps 730 mmHg 79%
    17:00 -6°C° 0 mm 7 mps 730 mmHg 82%
    18:00 -6°C° 0.1 mm 7 mps 731 mmHg 81%
    19:00 -6°C° 0.1 mm 7 mps 731 mmHg 80%
    20:00 -6°C° 0.1 mm 7 mps 732 mmHg 79%
    21:00 -7°C° 0.1 mm 7 mps 733 mmHg 81%
    22:00 -7°C° 0.1 mm 7 mps 733 mmHg 82%
    23:00 -8°C° 0.1 mm 7 mps 734 mmHg 83%

    23 January, Thursday

    Time Temperature Precipitation Wind Pressure Humidity
    00:00 -9°C° 0.1 mm 7 mps 735 mmHg 80%
    01:00 -9°C° 0.1 mm 7 mps 736 mmHg 77%
    02:00 -11°C° 0.1 mm 7 mps 736 mmHg 73%
    03:00 -11°C° 0 mm 7 mps 737 mmHg 72%
    04:00 -11°C° 0 mm 7 mps 737 mmHg 71%
    05:00 -12°C° 0 mm 7 mps 738 mmHg 70%
    06:00 -12°C° 0 mm 7 mps 738 mmHg 68%
    07:00 -12°C° 0 mm 7 mps 739 mmHg 66%
    08:00 -11°C° 0 mm 6 mps 739 mmHg 64%
    09:00 -11°C° 0 mm 6 mps 740 mmHg 64%
    10:00 -11°C° 0 mm 6 mps 741 mmHg 63%
    11:00 -11°C° 0 mm 6 mps 741 mmHg 62%
    12:00 -11°C° 0 mm 6 mps 742 mmHg 63%
    13:00 -11°C° 0 mm 6 mps 742 mmHg 64%
    14:00 -11°C° 0 mm 6 mps 743 mmHg 65%
    15:00 -11°C° 0 mm 5 mps 744 mmHg 67%
    16:00 -11°C° 0 mm 5 mps 744 mmHg 68%
    17:00 -10°C° 0 mm 4 mps 745 mmHg 70%
    18:00 -10°C° 0 mm 4 mps 745 mmHg 72%
    19:00 -10°C° 0 mm 3 mps 745 mmHg 73%
    20:00 -10°C° 0 mm 3 mps 745 mmHg 75%
    21:00 -9°C° 0 mm 3 mps 745 mmHg 75%
    22:00 -9°C° 0 mm 3 mps 745 mmHg 76%
    23:00 -9°C° 0 mm 3 mps 745 mmHg 76%

    24 January, Friday

    Time Temperature Precipitation Wind Pressure Humidity
    00:00 -9°C° 0 mm 3 mps 745 mmHg 73%
    01:00 -8°C° 0 mm 3 mps 744 mmHg 70%
    02:00 -8°C° 0 mm 3 mps 743 mmHg 67%
    03:00 -9°C° 0.2 mm 4 mps 743 mmHg 76%
    04:00 -9°C° 0.2 mm 4 mps 742 mmHg 84%
    05:00 -8°C° 0.2 mm 5 mps 741 mmHg 92%
    06:00 -8°C° 0.2 mm 5 mps 740 mmHg 93%
    07:00 -7°C° 0.2 mm 5 mps 740 mmHg 94%
    08:00 -6°C° 0.2 mm 5 mps 739 mmHg 95%
    09:00 -5°C° 0.3 mm 5 mps 739 mmHg 95%
    10:00 -4°C° 0.3 mm 5 mps 738 mmHg 95%
    11:00 -4°C° 0.3 mm 5 mps 738 mmHg 95%
    12:00 -2°C° 0.1 mm 5 mps 737 mmHg 95%
    13:00 -1°C° 0.1 mm 5 mps 737 mmHg 95%
    14:00 0°C° 0.1 mm 5 mps 736 mmHg 94%
    15:00 0°C° 0 mm 5 mps 736 mmHg 95%
    16:00 0°C° 0 mm 5 mps 736 mmHg 95%
    17:00 0°C° 0 mm 5 mps 736 mmHg 96%
    18:00 0°C° 0.4 mm 5 mps 735 mmHg 96%
    19:00 0°C° 0.4 mm 4 mps 735 mmHg 97%
    20:00 0°C° 0.4 mm 4 mps 735 mmHg 97%
    21:00 0°C° 0.2 mm 4 mps 735 mmHg 97%
    22:00 0°C° 0.2 mm 4 mps 735 mmHg 97%
    23:00 0°C° 0.2 mm 4 mps 735 mmHg 97%

    25 January, Saturday

    Time Temperature Precipitation Wind Pressure Humidity
    00:00 +1°C° 0.3 mm 3 mps 736 mmHg 97%
    01:00 +1°C° 0.3 mm 3 mps 736 mmHg 97%
    02:00 0°C° 0.3 mm 3 mps 736 mmHg 97%
    03:00 0°C° 0 mm 3 mps 736 mmHg 97%
    04:00 -1°C° 0 mm 2 mps 736 mmHg 97%
    05:00 -1°C° 0 mm 2 mps 736 mmHg 97%
    06:00 -2°C° 0 mm 2 mps 736 mmHg 97%
    07:00 -2°C° 0 mm 2 mps 737 mmHg 97%
    08:00 -2°C° 0 mm 2 mps 737 mmHg 97%
    09:00 -1°C° 0 mm 3 mps 737 mmHg 95%
    10:00 -1°C° 0 mm 3 mps 738 mmHg 94%
    11:00 0°C° 0 mm 3 mps 738 mmHg 92%
    12:00 -1°C° 0 mm 4 mps 738 mmHg 93%
    13:00 -1°C° 0 mm 4 mps 738 mmHg 93%
    14:00 0°C° 0 mm 5 mps 738 mmHg 93%
    15:00 -1°C° 0 mm 5 mps 739 mmHg 91%
    16:00 -1°C° 0 mm 4 mps 739 mmHg 90%
    17:00 -2°C° 0 mm 4 mps 739 mmHg 88%
    18:00 -2°C° 0 mm 4 mps 740 mmHg 89%
    19:00 -2°C° 0 mm 4 mps 740 mmHg 89%
    20:00 -3°C° 0 mm 4 mps 740 mmHg 90%
    21:00 -3°C° 0 mm 4 mps 741 mmHg 91%
    22:00 -3°C° 0 mm 4 mps 741 mmHg 92%
    23:00 -4°C° 0 mm 3 mps 742 mmHg 92%
    Show more